User: anonymous   Login
Location: Unspecified
(0.0000°N, 0.0000°E)
Time: 00:20:57
(UTC+00:00)
Language:

USA 227 - Orbit

View from above orbital plane
View from above orbital plane
View from above satellite
View from above satellite

Ground track
Ground track

The orbit data is extracted from the following two-line orbital elements,

1 37377U 11011A   16340.19004172 0.00000000  00000-0  00000-0 0    02
2 37377   4.6800 358.9470 0018000 133.8587 226.1412  1.00270000    05
Epoch (UTC): 05 December 2016 04:33:39
Eccentricity: 0.0018000
inclination: 4.6800°
perigee height: 35711 km
apogee height: 35862 km
right ascension of ascending node: 358.9470°
argument of perigee: 133.8587°
revolutions per day: 1.00270000
mean anomaly at epoch: 226.1412°
orbit number at epoch: 0

The dashed part of the orbit path shows where the satellite is in the earth's shadow,  

DLR